TimeEDT,TemperatureF,Dew PointF,Humidity,Sea Level PressureIn,VisibilityMPH,Wind Direction,Wind SpeedMPH,Gust SpeedMPH,PrecipitationIn,Events,Conditions,WindDirDegrees,DateUTC
12:54 AM,62.6,60.8,94,30.17,4.0,SSW,10.4,-,N/A,Rain,Rain,210,2013-05-19 04:54:00
1:54 AM,63.0,61.0,93,30.13,5.0,ESE,5.8,-,0.11,Rain,Light Rain,120,2013-05-19 05:54:00
2:44 AM,62.6,60.8,94,30.14,7.0,ESE,4.6,-,0.05,Rain,Light Rain,120,2013-05-19 06:44:00
2:54 AM,63.0,61.0,93,30.12,10.0,ESE,6.9,-,0.05,,Overcast,120,2013-05-19 06:54:00
3:26 AM,64.4,62.6,94,30.14,10.0,ESE,6.9,-,N/A,,Overcast,120,2013-05-19 07:26:00
3:54 AM,64.0,62.1,93,30.12,10.0,ESE,6.9,-,0.00,Rain,Light Rain,120,2013-05-19 07:54:00
4:12 AM,64.4,60.8,88,30.14,10.0,SE,6.9,-,N/A,,Overcast,130,2013-05-19 08:12:00
4:54 AM,63.0,62.1,97,30.12,4.0,ESE,8.1,-,0.01,Rain,Light Rain,120,2013-05-19 08:54:00
5:25 AM,62.6,62.6,100,30.15,2.5,ESE,5.8,-,0.02,Rain,Light Rain,110,2013-05-19 09:25:00
5:54 AM,63.0,61.0,93,30.13,2.5,ESE,6.9,-,0.02,,Overcast,110,2013-05-19 09:54:00
6:00 AM,64.4,60.8,88,30.15,10.0,ESE,6.9,-,N/A,,Overcast,120,2013-05-19 10:00:00
6:54 AM,63.0,61.0,93,30.14,8.0,SE,6.9,-,N/A,,Overcast,130,2013-05-19 10:54:00
7:52 AM,62.6,60.8,94,30.16,2.0,ESE,6.9,-,N/A,,Overcast,120,2013-05-19 11:52:00
7:54 AM,62.6,60.8,94,30.16,2.0,SE,5.8,-,N/A,,Overcast,130,2013-05-19 11:54:00
8:54 AM,64.0,62.1,93,30.15,1.5,ESE,4.6,-,0.01,,Overcast,110,2013-05-19 12:54:00
9:54 AM,64.0,62.1,93,30.16,1.5,ESE,6.9,-,N/A,,Overcast,120,2013-05-19 13:54:00
10:54 AM,64.9,63.0,93,30.16,1.8,ESE,5.8,-,0.01,,Overcast,110,2013-05-19 14:54:00
11:54 AM,64.9,63.0,93,30.15,3.0,ESE,8.1,-,0.00,Rain,Light Rain,120,2013-05-19 15:54:00
12:54 PM,64.9,62.1,90,30.14,7.0,ESE,9.2,-,0.00,,Overcast,110,2013-05-19 16:54:00
1:54 PM,66.0,63.0,90,30.12,9.0,ESE,8.1,-,0.00,Rain,Light Rain,120,2013-05-19 17:54:00
2:21 PM,66.2,62.6,88,30.13,5.0,ESE,5.8,-,0.00,Rain,Light Rain,120,2013-05-19 18:21:00
2:54 PM,66.2,62.6,88,30.12,10.0,ESE,8.1,-,N/A,,Overcast,120,2013-05-19 18:54:00
3:54 PM,68.0,64.4,88,30.11,10.0,East,9.2,-,N/A,,Overcast,100,2013-05-19 19:54:00
4:54 PM,69.1,64.0,84,30.09,10.0,ESE,6.9,-,N/A,,Overcast,110,2013-05-19 20:54:00
5:54 PM,69.1,64.0,84,30.08,10.0,ESE,8.1,-,N/A,,Overcast,110,2013-05-19 21:54:00
6:54 PM,69.1,64.9,87,30.07,10.0,ESE,4.6,-,N/A,,Overcast,120,2013-05-19 22:54:00
7:54 PM,69.1,64.9,87,30.07,10.0,East,4.6,-,0.00,,Overcast,90,2013-05-19 23:54:00
8:54 PM,68.0,64.9,90,30.08,7.0,Calm,Calm,-,0.00,Rain,Light Rain,0,2013-05-20 00:54:00
9:01 PM,68.0,64.4,88,30.11,5.0,South,3.5,-,0.01,Rain,Light Rain,170,2013-05-20 01:01:00
9:54 PM,66.9,64.9,93,30.10,7.0,East,5.8,-,0.04,Rain,Light Rain,100,2013-05-20 01:54:00
10:52 PM,66.2,64.4,94,30.12,8.0,Calm,Calm,-,0.00,,Overcast,0,2013-05-20 02:52:00
10:54 PM,66.9,64.9,93,30.10,7.0,Calm,Calm,-,0.00,,Overcast,0,2013-05-20 02:54:00
11:31 PM,66.2,64.4,94,30.12,10.0,SSE,3.5,-,N/A,,Overcast,160,2013-05-20 03:31:00
11:54 PM,66.0,64.0,93,30.10,10.0,SE,4.6,-,N/A,,Overcast,140,2013-05-20 03:54:00